| time (UTC) | temp C | wind direction | speed KPH | gust KPH | rain 1hr cm | rain 24hr cm | rain mn cm | humidity % | barometer mb |
| 20260504044533 | 8 | 22 | 0.0 | 1.6 | 0.00 | 0.00 | 0.00 | 57 | 959.1 |
| 20260504043026 | 8 | 22 | 0.0 | 0.0 | 0.00 | 0.00 | 0.00 | 57 | 959.0 |
| 20260504040021 | 8 | 15 | 0.0 | 0.0 | 0.00 | 0.00 | 0.00 | 54 | 959.0 |
| 20260504034520 | 9 | 15 | 0.0 | 0.0 | 0.00 | 0.00 | 0.00 | 54 | 959.0 |
| 20260504033022 | 9 | 15 | 0.0 | 0.0 | 0.00 | 0.00 | 0.00 | 54 | 959.0 |
| 20260504030010 | 9 | 9 | 0.0 | 0.0 | 0.00 | 0.00 | 0.00 | 54 | 959.2 |
| 20260504024511 | 9 | 9 | 0.0 | 0.0 | 0.00 | 0.00 | 0.00 | 53 | 959.2 |
| 20260504023009 | 9 | 9 | 0.0 | 1.6 | 0.00 | 0.00 | 0.00 | 53 | 959.5 |
| 20260504020019 | 10 | 9 | 0.0 | 0.0 | 0.00 | 0.00 | 0.00 | 53 | 959.4 |
| 20260504014517 | 10 | 9 | 0.0 | 3.2 | 0.00 | 0.00 | 0.00 | 51 | 959.2 |
| 20260504013030 | 10 | 9 | 0.0 | 3.2 | 0.00 | 0.00 | 0.00 | 51 | 959.2 |
| 20260504010044 | 10 | 250 | 0.0 | 1.6 | 0.00 | 0.00 | 0.00 | 49 | 959.0 |
| 20260504004544 | 10 | 250 | 0.0 | 4.8 | 0.00 | 0.00 | 0.00 | 49 | 959.0 |
| 20260504003045 | 10 | 269 | 4.8 | 19.3 | 0.00 | 0.00 | 0.00 | 48 | 958.9 |
| 20260504000101 | 11 | 237 | 1.6 | 9.7 | 0.00 | 0.00 | 0.00 | 49 | 958.4 |
| 20260503234540 | 11 | 225 | 0.0 | 6.4 | 0.00 | 0.00 | 0.00 | 48 | 958.3 |
| 20260503233043 | 11 | 269 | 3.2 | 6.4 | 0.00 | 0.00 | 0.00 | 47 | 958.1 |
| 20260503230041 | 11 | 252 | 1.6 | 12.9 | 0.00 | 0.00 | 0.00 | 46 | 958.2 |
| 20260503224540 | 11 | 234 | 0.0 | 8.0 | 0.00 | 0.00 | 0.00 | 48 | 958.3 |
| 20260503223040 | 11 | 234 | 0.0 | 6.4 | 0.00 | 0.00 | 0.00 | 47 | 958.3 |
| 20260503220029 | 12 | 277 | 1.6 | 8.0 | 0.00 | 0.00 | 0.00 | 44 | 958.5 |
| 20260503214528 | 11 | 261 | 3.2 | 9.7 | 0.00 | 0.00 | 0.00 | 45 | 958.4 |
| 20260503213032 | 11 | 254 | 3.2 | 12.9 | 0.00 | 0.00 | 0.00 | 46 | 958.6 |
| 20260503210031 | 11 | 248 | 4.8 | 17.7 | 0.00 | 0.00 | 0.00 | 49 | 958.5 |
| 20260503204528 | 11 | 263 | 4.8 | 29.0 | 0.00 | 0.00 | 0.00 | 47 | 958.7 |
| 20260503203033 | 11 | 9 | 4.8 | 17.7 | 0.00 | 0.00 | 0.00 | 46 | 958.5 |
| 20260503200025 | 12 | 211 | 3.2 | 14.5 | 0.00 | 0.00 | 0.00 | 39 | 958.4 |
| 20260503194523 | 12 | 273 | 6.4 | 24.1 | 0.00 | 0.00 | 0.00 | 39 | 958.5 |
| 20260503193022 | 12 | 286 | 6.4 | 22.5 | 0.00 | 0.00 | 0.00 | 37 | 958.8 |
| 20260503190055 | 13 | 323 | 6.4 | 16.1 | 0.00 | 0.00 | 0.00 | 37 | 959.0 |
| 20260503184608 | 12 | 12 | 6.4 | 20.9 | 0.00 | 0.00 | 0.00 | 37 | 959.0 |
| 20260503183052 | 12 | 242 | 8.0 | 19.3 | 0.00 | 0.00 | 0.00 | 39 | 959.2 |
| 20260503180057 | 11 | 282 | 6.4 | 16.1 | 0.00 | 0.00 | 0.00 | 39 | 959.4 |
| 20260503174551 | 11 | 231 | 1.6 | 16.1 | 0.00 | 0.00 | 0.00 | 43 | 959.6 |
| 20260503173049 | 11 | 11 | 4.8 | 12.9 | 0.00 | 0.00 | 0.00 | 40 | 959.9 |
| 20260503170106 | 10 | 355 | 3.2 | 19.3 | 0.00 | 0.00 | 0.00 | 41 | 960.1 |